Temperature
19 19 19 19 16 14 17 18 20 21 23 24 24 24 21 21 21 21 22 21 21 22 22 22 22 22 21 21 21 20 19 19 18 17 17 17 16 16 16 16 17 17 17 17 17 17 17 17 17
19 19 19 19 15 16 18 19 21 22 24 25 25 24 22 22 22 22 22 22 21 22 22 22 22 21 21 21 21 20 20 19 18 18 17 16 16 16 16 16 16 16 16 16 16 17 17 17 17
19 19 19 15 16 17 20 21 21 22 24 25 25 24 23 22 22 22 22 22 22 21 21 21 21 21 21 21 21 20 20 19 19 18 17 16 16 15 16 16 16 16 16 16 16 16 16 16 17
19 19 18 15 18 18 20 21 21 21 23 24 24 22 22 22 22 22 21 21 22 21 21 21 20 20 20 20 20 20 20 19 19 18 17 16 15 15 15 16 16 16 16 16 16 16 16 16 16
19 18 15 15 17 19 19 20 21 19 20 22 23 21 21 21 22 22 21 21 21 21 20 20 19 19 19 19 19 19 19 19 18 18 17 16 15 15 15 15 15 15 16 16 16 16 16 16 16
19 16 14 16 18 19 19 21 21 20 21 22 22 21 21 21 21 21 21 21 21 20 19 19 19 19 18 18 18 18 18 18 18 18 17 17 16 15 15 15 15 15 15 15 15 16 16 16 16
18 14 16 17 17 18 18 21 20 20 20 21 22 20 20 20 20 20 20 20 20 19 19 18 18 18 17 17 17 16 16 16 16 17 17 16 16 15 15 15 15 15 15 15 15 15 15 16 16
19 14 17 16 18 18 19 21 21 20 19 20 20 18 18 19 20 20 20 19 19 19 18 18 18 17 17 16 16 16 15 15 15 15 16 16 16 15 15 15 15 15 14 14 14 14 15 15 15
19 14 16 18 19 18 19 19 20 20 19 17 16 15 16 18 19 19 19 19 18 17 17 17 17 17 16 16 16 15 15 15 15 15 15 15 15 15 15 15 15 14 14 14 14 14 14 14 15
18 15 18 19 19 19 19 19 19 18 16 15 15 15 17 18 18 18 17 17 17 16 16 16 16 16 16 16 15 15 15 15 15 15 15 15 14 14 14 14 14 14 14 14 14 14 14 14 14
18 17 18 19 20 20 19 18 17 16 12 12 11 12 15 17 16 15 15 14 14 15 15 15 15 15 15 15 15 14 14 14 14 14 14 14 14 14 14 14 14 14 14 14 14 14 14 14 15
18 19 19 20 20 20 18 16 14 13 11 10 11 12 14 13 13 13 13 13 14 14 14 14 14 14 14 14 14 14 14 14 14 14 14 14 14 14 14 14 14 14 13 13 13 13 13 13 14
19 19 19 20 19 18 17 14 13 12 11 11 12 12 11 11 11 11 12 12 13 13 13 13 14 14 14 14 14 14 14 14 14 14 14 14 14 14 14 14 13 13 13 13 13 13 13 13 13
19 19 19 19 18 17 15 14 13 11 10 10 10 10 10 10 10 11 11 11 11 12 12 13 13 13 13 13 13 13 14 14 14 14 14 14 14 14 13 13 13 13 13 13 13 13 13 13 13
18 18 17 18 18 17 15 12 11 11 10 10 9 9 9 9 9 9 9 9 9 10 10 11 12 12 13 13 13 13 13 13 13 13 13 13 13 13 13 13 13 13 13 13 13 12 12 12 12
17 16 16 17 18 17 14 11 11 10 10 9 9 9 8 8 8 8 8 8 8 8 9 9 10 10 11 11 12 12 12 12 13 13 13 13 13 13 13 13 13 13 12 12 12 12 12 12 12
14 15 16 17 16 16 13 11 10 9 9 8 8 8 8 8 8 8 7 7 7 7 7 7 8 8 9 9 10 11 11 12 12 12 12 12 12 12 12 12 12 12 12 12 12 12 12 12 12
15 15 15 15 15 14 11 9 9 9 8 8 8 8 8 8 7 7 7 7 7 6 6 6 6 6 7 7 8 9 9 10 11 11 11 11 11 11 11 11 12 12 12 12 12 12 12 12 12
15 15 14 15 14 13 10 9 8 8 8 8 8 8 8 7 7 7 7 6 6 6 6 6 5 5 5 5 5 6 6 7 7 8 9 9 9 10 10 10 10 11 11 11 11 11 11 11 11
14 14 13 13 13 11 8 8 8 8 8 8 8 7 7 7 6 6 6 6 5 5 5 5 5 4 4 4 4 4 4 4 5 5 7 7 8 9 9 9 10 10 10 10 11 11 11 11 11
13 13 13 13 12 10 8 8 8 7 8 7 7 6 6 5 5 5 5 4 4 4 4 4 4 4 4 3 3 3 4 4 4 4 5 6 7 7 8 9 9 9 10 10 10 10 10 10 10
12 13 13 12 11 10 10 7 7 7 6 5 6 5 5 5 4 4 4 3 3 3 3 3 3 2 3 3 2 2 2 2 2 3 3 4 5 6 7 8 8 9 9 9 10 10 10 10 10
12 12 11 11 10 10 10 7 6 6 5 4 5 5 4 4 4 3 3 3 3 2 2 2 1 1 1 1 1 1 2 2 2 2 3 3 4 5 6 7 7 8 8 9 9 9 9 9 9
11 10 11 9 9 11 11 8 5 5 5 4 4 4 4 3 3 3 2 2 2 2 1 1 0 0 0 0 0 0 1 1 1 1 2 2 3 4 5 6 6 7 7 8 8 9 9 9 9
9 8 9 10 9 10 8 5 4 5 4 4 4 3 3 2 2 1 1 1 0 0 -0 -1 -1 -1 -1 -1 -0 -0 -0 0 0 0 -0 0 1 3 4 4 5 6 6 6 7 8 8 8 8
10 9 9 9 8 8 7 4 4 4 5 4 3 3 2 2 1 0 -0 -1 -1 -1 -2 -2 -2 -2 -2 -1 -1 -1 -1 -1 -1 -1 -2 -2 -1 0 2 3 4 5 5 6 6 7 7 7 7
11 9 9 7 7 7 6 4 4 4 3 3 3 2 1 1 -0 -1 -1 -2 -2 -2 -3 -3 -3 -3 -3 -3 -2 -2 -2 -2 -2 -2 -3 -3 -2 -1 0 1 3 4 4 5 5 6 6 6 7
11 10 7 7 7 7 7 5 3 2 2 2 2 1 1 -0 -1 -2 -2 -3 -3 -3 -4 -4 -4 -4 -4 -4 -4 -4 -3 -3 -3 -3 -4 -3 -3 -2 -1 0 1 2 3 4 4 5 5 5 6
10 9 7 6 6 5 5 4 4 3 2 1 1 1 -0 -2 -2 -3 -3 -4 -4 -5 -5 -5 -5 -5 -6 -6 -5 -5 -5 -4 -4 -4 -4 -4 -3 -3 -1 -0 1 1 2 3 3 4 3 4 5
9 8 6 6 5 4 3 3 3 3 3 2 1 -0 -1 -2 -3 -4 -4 -5 -5 -6 -6 -7 -7 -7 -7 -7 -7 -7 -6 -6 -5 -5 -5 -4 -4 -3 -2 -1 -0 0 1 2 2 2 3 3 4
Wind_Speed
11 9 3 4 6 5 4 6 4 1 2 3 3 9 9 6 5 4 4 4 9 9 13 16 16 15 13 11 10 9 8 7 6 5 4 5 5 6 7 7 7 7 7 7 6 5 4 4 4
6 5 5 5 5 5 4 5 4 4 1 2 6 8 7 4 2 6 4 7 10 10 14 16 17 16 13 12 10 9 9 8 7 6 5 5 4 5 6 6 7 8 8 7 6 5 4 4 5
6 4 4 5 4 2 1 3 3 6 6 5 6 6 6 3 1 3 5 9 9 9 13 16 18 16 14 12 11 10 10 9 8 7 6 6 5 3 3 4 6 8 8 7 6 5 5 5 5
5 5 5 5 4 4 4 3 6 8 11 9 5 6 5 4 1 4 3 7 10 8 11 14 15 14 12 11 10 10 10 9 9 8 7 7 6 5 3 2 4 5 7 7 6 5 5 5 5
4 5 6 5 5 6 5 5 10 11 8 9 6 5 4 8 3 2 3 5 8 7 7 10 12 12 12 11 10 10 10 9 9 8 8 7 7 7 5 3 3 4 6 6 6 6 6 6 6
5 5 5 4 7 6 6 6 8 8 8 9 6 4 2 7 5 5 7 5 6 7 6 8 10 11 11 11 11 10 10 10 9 9 9 7 8 9 7 6 6 6 6 7 7 7 7 7 7
4 4 3 4 4 7 10 8 9 7 10 9 6 4 4 9 8 5 6 7 7 6 4 2 3 5 8 9 10 10 10 10 9 10 9 8 6 6 7 7 7 9 9 8 7 6 6 7 8
5 5 5 4 4 5 9 7 7 8 7 9 8 7 5 9 9 7 6 9 9 8 6 4 2 3 4 6 8 9 10 10 10 9 9 8 7 8 8 8 9 10 11 10 9 8 7 7 7
4 5 4 4 3 2 5 8 10 6 8 9 10 10 8 12 15 16 13 11 9 10 8 5 5 4 3 5 7 9 11 11 11 11 11 10 9 10 10 11 12 13 13 13 12 11 10 10 9
5 3 1 2 2 2 3 6 7 9 13 10 10 17 18 22 23 22 19 16 14 13 11 10 8 7 8 6 3 4 7 9 11 11 11 11 11 11 11 12 16 17 16 15 15 14 13 11 9
4 5 4 1 3 3 4 6 8 7 11 9 9 13 19 26 25 24 21 17 16 14 16 15 12 11 10 7 6 5 6 7 9 11 11 10 10 9 9 9 10 12 15 12 12 11 10 9 8
3 3 2 2 2 3 4 5 10 13 9 9 11 15 22 25 23 20 19 19 18 18 19 17 15 14 13 12 8 6 6 5 5 7 8 6 3 3 4 4 6 6 7 7 7 6 8 9 11
1 1 1 1 5 8 12 11 13 11 10 11 18 24 23 21 17 15 16 18 19 20 20 17 18 18 15 12 11 10 8 7 8 8 7 4 3 4 4 3 4 6 7 5 5 5 7 8 7
3 4 5 2 7 7 13 9 9 8 8 16 21 21 18 18 17 18 20 20 19 17 18 17 19 18 17 14 12 10 12 13 11 10 10 9 4 3 4 4 5 4 6 6 5 6 7 7 6
5 5 7 4 7 6 11 11 8 7 11 18 16 15 16 15 16 15 13 13 13 12 14 17 16 17 16 15 14 14 15 16 12 13 15 12 8 5 3 4 5 5 7 6 5 5 5 5 5
5 6 6 6 4 5 10 7 7 5 14 16 11 11 12 12 12 10 10 10 11 11 13 14 16 16 15 12 12 13 16 15 14 17 17 16 13 8 3 4 5 5 6 4 5 5 5 5 5
8 5 4 6 8 5 8 8 6 6 14 13 10 10 10 11 12 10 10 9 10 10 11 12 12 12 12 10 11 12 13 13 15 17 17 19 18 14 5 5 5 5 5 5 5 5 5 5 5
4 3 4 4 7 7 9 9 8 7 13 11 9 9 10 12 11 9 10 10 9 9 10 10 10 11 10 8 8 8 10 12 14 14 17 21 19 18 9 6 7 6 5 5 5 5 5 4 4
2 2 4 2 5 6 10 11 7 6 9 10 9 9 10 10 10 11 11 11 12 13 13 13 14 13 11 8 8 8 9 10 11 11 19 21 21 19 11 9 7 6 5 6 6 5 5 4 3
5 3 4 5 6 6 11 9 7 6 7 7 8 9 10 11 13 14 14 14 15 16 17 17 17 16 13 9 7 5 5 5 7 7 14 20 21 20 13 12 9 7 6 6 6 5 4 3 3
5 2 2 5 5 6 9 5 5 5 7 9 9 9 10 13 13 14 14 13 14 15 16 17 16 16 14 12 8 8 6 6 7 10 13 16 21 20 16 15 12 9 7 7 7 6 7 5 3
5 5 6 5 2 3 5 4 4 3 7 10 10 11 12 12 12 12 12 13 13 13 13 14 14 15 14 12 10 10 10 8 8 9 10 16 18 18 17 15 13 9 7 7 7 6 5 6 4
7 9 7 4 5 2 0 5 2 2 6 9 9 10 11 11 12 12 12 12 12 13 13 13 13 13 12 12 11 10 9 8 9 11 13 14 16 16 17 15 12 9 6 7 7 6 6 5 5
7 7 6 5 4 1 2 5 1 4 5 6 9 10 11 11 11 11 12 12 12 13 13 13 14 12 12 11 11 11 11 12 15 15 14 15 14 15 18 17 13 9 5 5 6 7 7 5 5
10 8 7 8 6 4 4 7 4 5 6 7 8 9 10 10 10 11 13 14 15 16 16 16 16 15 14 13 13 12 12 13 13 15 15 16 15 15 18 18 14 9 5 4 4 4 6 6 6
5 5 4 2 5 6 4 6 6 5 5 5 6 7 9 10 10 11 13 14 16 17 17 17 17 17 17 16 15 13 14 13 13 15 16 16 14 15 18 19 15 10 5 3 2 1 3 4 5
4 3 2 4 4 5 2 4 5 4 5 7 9 10 10 10 10 11 12 14 15 17 17 18 19 19 19 18 17 16 16 16 17 18 17 15 15 17 18 18 15 9 4 2 1 1 1 3 4
3 2 5 2 4 6 4 2 3 8 10 10 11 11 11 10 10 11 12 15 16 17 17 18 19 20 20 19 18 16 17 17 18 17 19 19 19 19 19 17 13 9 5 2 2 2 2 3 4
6 4 4 1 2 3 5 2 5 6 7 9 10 11 10 11 12 13 14 15 17 18 19 19 20 20 20 20 19 18 18 17 18 17 19 19 19 19 18 16 13 8 4 2 3 3 3 3 4
3 4 4 1 5 3 3 2 6 5 6 8 10 10 9 10 11 12 14 16 17 19 19 20 20 20 20 20 19 19 18 18 18 19 20 20 19 18 17 15 12 8 4 1 1 3 4 4 4
Wind_Direction
341 351 63 55 51 44 342 294 268 248 39 338 45 87 107 108 126 159 223 178 152 149 169 171 172 173 174 175 175 174 177 181 184 188 191 197 205 208 206 206 207 209 208 209 213 213 209 201 190
350 2 48 57 73 46 346 301 352 36 140 36 53 85 86 73 122 141 155 165 155 155 169 172 173 174 175 178 181 185 189 194 198 203 214 224 226 215 209 219 221 218 214 216 221 224 223 216 208
355 36 66 63 77 134 311 278 352 345 346 43 53 67 83 85 118 179 209 162 149 156 172 176 174 174 177 181 187 193 197 203 209 214 225 234 223 228 225 239 240 225 210 207 212 216 220 219 214
42 33 52 59 359 279 272 322 44 30 3 4 45 54 52 350 231 214 218 156 153 170 177 176 175 176 178 184 192 199 204 211 217 222 235 240 218 217 226 242 234 215 198 195 201 207 213 217 219
61 65 49 24 332 308 317 350 63 54 20 0 34 62 29 336 7 91 96 150 155 156 169 175 178 181 183 189 197 204 210 219 225 230 239 247 236 218 210 212 215 204 194 196 203 209 212 214 220
48 60 61 5 339 333 352 1 50 45 13 12 41 75 16 339 11 26 49 79 126 131 145 170 188 192 191 195 202 208 213 222 229 236 242 248 251 223 211 219 225 218 212 209 211 214 218 220 222
84 73 57 347 344 15 353 351 36 36 23 347 354 69 11 352 341 358 62 79 93 101 105 125 217 219 215 214 214 215 219 226 233 238 244 241 252 237 230 231 235 229 222 216 215 219 226 231 232
110 88 36 18 44 8 328 1 13 31 22 3 31 52 3 334 340 3 38 54 60 61 61 37 335 269 259 255 244 231 227 231 237 242 247 235 236 245 248 242 241 236 227 218 215 220 228 235 241
79 67 26 3 44 352 341 17 357 36 54 42 39 35 6 8 25 28 24 25 37 42 39 35 33 30 316 267 247 239 236 237 239 240 240 234 234 241 247 248 246 242 235 225 220 222 228 232 238
80 98 279 331 125 132 28 31 4 39 37 25 25 24 29 38 39 36 29 25 25 21 17 19 23 21 21 16 356 269 263 257 250 244 240 235 232 235 241 250 250 240 233 227 224 226 229 233 238
141 180 231 277 171 128 60 32 19 72 45 32 48 38 41 45 42 38 33 26 21 15 15 11 11 13 18 15 12 343 315 293 272 258 249 246 242 240 242 251 258 238 228 225 232 237 233 233 237
203 255 305 330 359 50 65 72 54 62 89 80 72 61 55 50 44 37 32 28 23 22 17 12 13 12 10 11 6 1 352 339 317 293 271 251 245 242 234 230 236 226 223 225 232 234 236 235 238
146 293 322 288 57 76 83 87 92 81 94 82 69 60 56 54 48 41 37 33 27 23 16 13 18 16 10 9 4 2 355 349 341 333 317 273 235 239 235 228 224 227 229 227 226 229 234 236 237
301 296 309 323 82 81 87 83 89 84 87 73 65 61 57 54 48 43 36 31 25 20 16 12 19 15 14 12 5 358 353 349 347 343 333 323 297 261 257 258 248 233 227 226 224 229 231 234 234
321 341 358 32 116 129 94 55 64 98 86 71 63 61 58 52 47 44 37 31 23 17 16 15 16 14 14 11 5 1 355 352 347 340 332 324 311 288 263 257 258 250 241 234 234 239 236 240 240
25 33 22 357 66 103 93 92 61 71 84 73 60 55 54 47 43 38 33 28 21 18 15 13 14 12 11 8 3 1 357 353 347 340 334 326 316 296 266 258 256 252 247 234 234 236 240 243 246
29 22 2 351 14 49 86 106 66 55 82 75 58 51 48 41 33 25 20 15 10 8 5 3 3 4 2 360 360 359 358 355 348 343 338 331 322 306 279 261 258 255 245 238 234 225 219 235 246
346 340 326 334 10 46 85 99 77 57 76 69 55 46 41 34 18 7 7 3 357 354 353 351 351 351 349 350 354 357 357 354 348 344 339 335 328 318 301 275 262 258 246 241 227 221 217 218 231
316 316 319 319 33 56 99 98 78 63 65 61 50 41 34 23 3 0 0 358 357 355 354 350 348 344 345 346 349 351 352 348 344 340 336 333 329 323 313 293 271 252 235 231 218 201 206 212 198
33 43 5 333 14 75 95 85 70 61 68 67 55 41 29 18 8 4 3 1 359 357 355 353 348 341 337 330 324 322 323 324 326 325 331 332 331 324 315 301 278 251 230 225 214 192 182 199 179
5 121 278 288 348 81 112 84 78 43 49 44 34 31 22 20 7 2 1 358 358 359 356 352 344 340 334 331 329 331 330 330 341 341 337 332 328 323 316 306 288 256 223 214 210 194 177 187 198
306 255 267 268 303 227 174 167 159 86 50 35 25 22 15 8 2 359 359 357 359 355 350 346 341 339 340 341 345 346 348 339 330 330 326 325 323 321 318 313 299 269 232 212 210 199 186 168 180
281 289 289 247 182 218 69 128 186 80 53 28 18 15 10 3 358 355 357 356 354 349 346 341 338 340 343 346 348 347 341 332 328 329 326 326 322 319 316 311 308 287 257 223 203 190 187 175 169
317 349 23 55 81 100 5 132 50 25 58 33 16 8 3 354 350 352 355 354 349 346 344 343 344 344 347 349 348 344 340 337 336 336 331 328 321 317 317 314 304 290 273 253 217 187 180 180 167
18 31 18 5 4 282 55 91 104 79 71 50 20 2 353 345 347 356 356 352 349 348 348 348 348 349 351 353 352 346 345 340 336 335 330 326 321 316 315 315 306 292 262 253 242 190 173 170 165
4 76 94 293 276 294 23 109 137 118 79 45 14 356 348 348 354 360 354 351 349 348 348 348 350 352 354 355 352 349 350 345 339 334 329 322 317 311 309 309 302 293 275 238 226 205 174 158 158
18 43 158 177 283 279 279 126 159 63 34 17 4 357 349 347 350 354 352 352 350 348 349 351 354 354 354 354 351 350 348 343 339 335 329 324 318 312 309 308 298 284 269 230 167 118 135 135 132
39 88 54 49 302 292 294 92 346 1 359 356 352 345 338 340 345 353 355 355 353 351 352 355 356 355 353 352 351 347 343 341 338 334 331 327 322 317 313 311 301 284 257 191 129 93 62 84 88
1 45 56 35 221 254 291 348 47 27 358 344 335 334 338 344 350 354 356 357 354 354 356 355 354 353 352 351 348 346 344 340 338 337 334 330 325 321 319 317 308 293 273 226 145 124 110 96 83
57 79 87 0 294 264 257 225 67 19 337 330 330 334 343 349 351 354 357 357 356 355 354 353 352 351 350 348 347 346 343 341 342 343 341 339 336 333 329 323 318 309 307 305 157 149 130 114 99
Height
1523 1522 1521 1520 1523 1532 1532 1524 1516 1510 1505 1504 1503 1503 1508 1512 1517 1523 1518 1516 1517 1518 1517 1517 1517 1518 1518 1518 1518 1518 1518 1518 1518 1519 1519 1520 1520 1521 1522 1522 1523 1523 1523 1523 1524 1524 1524 1525 1525
1523 1522 1522 1521 1530 1541 1532 1519 1514 1508 1505 1504 1504 1506 1509 1512 1513 1515 1516 1517 1518 1518 1518 1519 1519 1519 1519 1519 1518 1518 1518 1518 1518 1518 1518 1519 1520 1521 1521 1521 1521 1522 1522 1522 1522 1523 1523 1524 1524
1523 1522 1522 1524 1531 1536 1527 1517 1513 1509 1507 1505 1507 1509 1512 1515 1516 1516 1517 1517 1518 1519 1519 1520 1520 1520 1520 1519 1519 1518 1518 1517 1517 1517 1517 1518 1519 1520 1520 1520 1520 1520 1521 1521 1521 1522 1522 1523 1523
1523 1524 1524 1530 1531 1528 1522 1516 1512 1510 1508 1509 1509 1512 1516 1518 1518 1519 1519 1518 1518 1519 1520 1520 1520 1520 1520 1519 1519 1519 1518 1517 1516 1516 1516 1517 1518 1518 1519 1519 1519 1519 1519 1519 1520 1520 1521 1521 1522
1524 1524 1530 1537 1533 1527 1521 1517 1513 1514 1514 1514 1513 1516 1518 1520 1520 1520 1520 1520 1519 1519 1520 1520 1520 1520 1520 1519 1519 1519 1518 1517 1516 1515 1515 1515 1516 1516 1517 1517 1518 1518 1518 1518 1518 1519 1519 1520 1520
1525 1526 1540 1542 1535 1527 1523 1519 1515 1517 1517 1516 1517 1518 1521 1523 1523 1522 1522 1521 1521 1520 1521 1521 1520 1519 1519 1519 1518 1518 1517 1516 1516 1515 1514 1514 1514 1514 1515 1515 1515 1516 1516 1516 1516 1517 1517 1518 1518
1527 1533 1539 1538 1537 1531 1526 1522 1520 1520 1520 1521 1520 1521 1524 1525 1525 1524 1524 1523 1522 1522 1522 1521 1520 1519 1519 1518 1518 1517 1516 1515 1515 1514 1513 1512 1512 1512 1512 1512 1513 1513 1513 1514 1514 1514 1515 1515 1516
1528 1533 1537 1539 1537 1534 1528 1524 1524 1523 1526 1524 1523 1526 1529 1528 1526 1525 1525 1524 1524 1523 1522 1521 1520 1519 1518 1517 1516 1516 1515 1514 1513 1512 1512 1511 1510 1510 1510 1510 1510 1510 1510 1511 1511 1512 1512 1513 1513
1530 1539 1543 1537 1535 1534 1529 1526 1526 1527 1529 1530 1531 1533 1533 1529 1525 1524 1524 1524 1524 1524 1523 1523 1521 1519 1517 1516 1515 1514 1514 1513 1512 1511 1510 1510 1509 1509 1508 1508 1507 1507 1507 1508 1508 1509 1509 1509 1510
1531 1542 1537 1533 1531 1531 1529 1528 1528 1530 1531 1534 1534 1534 1531 1527 1525 1524 1524 1524 1524 1524 1524 1523 1521 1519 1517 1515 1514 1514 1513 1512 1511 1510 1509 1508 1508 1507 1506 1506 1506 1506 1505 1505 1505 1505 1505 1505 1505
1531 1535 1532 1531 1530 1529 1529 1530 1531 1531 1541 1543 1541 1537 1531 1528 1527 1526 1526 1526 1526 1525 1523 1522 1521 1518 1516 1514 1514 1513 1512 1510 1509 1508 1507 1506 1505 1505 1504 1504 1503 1503 1502 1502 1502 1502 1501 1501 1501
1531 1530 1530 1530 1529 1528 1530 1533 1537 1538 1548 1547 1542 1537 1532 1530 1531 1531 1530 1529 1527 1525 1523 1521 1519 1517 1515 1514 1513 1512 1511 1509 1508 1506 1505 1504 1503 1502 1501 1500 1500 1500 1499 1499 1498 1498 1497 1497 1496
1529 1529 1529 1529 1529 1530 1531 1536 1541 1548 1550 1547 1541 1536 1535 1535 1536 1535 1534 1531 1529 1526 1524 1521 1519 1516 1515 1513 1511 1510 1509 1507 1506 1505 1503 1502 1501 1500 1499 1498 1497 1496 1495 1495 1494 1494 1494 1493 1493
1530 1528 1527 1527 1528 1532 1534 1540 1543 1553 1551 1545 1541 1540 1540 1539 1539 1536 1534 1532 1530 1528 1525 1522 1519 1517 1515 1512 1510 1509 1507 1505 1504 1503 1501 1500 1499 1497 1496 1494 1493 1492 1492 1491 1490 1490 1489 1489 1488
1529 1529 1528 1527 1529 1533 1534 1546 1551 1555 1550 1545 1545 1545 1544 1543 1541 1539 1538 1536 1533 1530 1526 1522 1519 1517 1514 1512 1509 1507 1505 1503 1502 1500 1499 1497 1496 1494 1492 1490 1489 1488 1487 1486 1486 1485 1484 1484 1484
1531 1535 1538 1532 1530 1533 1539 1557 1557 1557 1550 1549 1550 1549 1547 1546 1545 1543 1541 1538 1535 1531 1527 1523 1520 1516 1513 1510 1508 1505 1502 1500 1498 1496 1495 1493 1491 1489 1487 1485 1484 1483 1482 1481 1480 1480 1479 1478 1478
1543 1546 1543 1538 1534 1535 1543 1557 1560 1559 1553 1554 1554 1553 1551 1550 1548 1546 1543 1540 1536 1532 1528 1523 1519 1515 1511 1508 1505 1502 1499 1497 1494 1492 1490 1488 1485 1484 1482 1480 1479 1477 1476 1475 1475 1474 1473 1473 1472
1551 1549 1546 1544 1541 1542 1550 1560 1563 1562 1558 1558 1558 1557 1555 1553 1551 1549 1545 1541 1538 1533 1529 1524 1519 1514 1510 1505 1501 1497 1494 1492 1489 1487 1484 1482 1479 1477 1475 1473 1472 1471 1470 1469 1468 1468 1467 1467 1467
1546 1547 1549 1545 1544 1548 1556 1564 1566 1566 1563 1562 1561 1560 1558 1557 1555 1551 1547 1542 1537 1532 1527 1522 1518 1513 1508 1502 1498 1493 1489 1486 1483 1481 1478 1475 1472 1470 1467 1466 1465 1465 1463 1462 1462 1461 1461 1461 1461
1548 1549 1551 1549 1547 1553 1563 1567 1569 1567 1566 1565 1564 1563 1561 1559 1555 1551 1547 1542 1537 1532 1527 1522 1517 1512 1507 1502 1497 1493 1488 1484 1480 1476 1472 1469 1465 1462 1460 1458 1457 1457 1456 1456 1456 1455 1455 1455 1455
1551 1551 1550 1551 1550 1554 1563 1570 1571 1571 1569 1568 1567 1566 1564 1561 1557 1553 1548 1543 1538 1533 1528 1522 1516 1511 1505 1500 1494 1489 1483 1479 1474 1469 1465 1461 1458 1455 1453 1451 1449 1449 1449 1449 1449 1448 1449 1449 1449
1555 1547 1547 1547 1553 1559 1557 1572 1573 1572 1572 1571 1570 1568 1565 1562 1558 1554 1548 1543 1538 1532 1527 1520 1514 1508 1502 1497 1491 1485 1480 1475 1471 1466 1461 1456 1452 1448 1446 1444 1442 1441 1441 1441 1442 1442 1442 1443 1444
1551 1545 1545 1545 1551 1554 1553 1568 1577 1572 1574 1575 1573 1570 1567 1563 1559 1554 1548 1543 1537 1531 1524 1517 1511 1505 1499 1494 1489 1483 1479 1474 1468 1462 1456 1451 1446 1442 1439 1437 1435 1434 1434 1434 1435 1435 1436 1437 1438
1551 1548 1546 1550 1554 1556 1551 1564 1581 1578 1578 1578 1574 1571 1568 1563 1558 1553 1547 1542 1535 1528 1521 1514 1507 1501 1496 1490 1485 1480 1475 1469 1463 1456 1450 1444 1439 1436 1432 1430 1428 1427 1427 1427 1428 1428 1429 1430 1432
1558 1563 1566 1564 1566 1560 1561 1572 1584 1582 1580 1579 1576 1573 1568 1563 1557 1551 1545 1539 1532 1525 1518 1511 1504 1497 1492 1486 1481 1476 1471 1465 1459 1452 1445 1439 1433 1429 1426 1423 1421 1420 1420 1421 1422 1422 1423 1425 1426
1564 1568 1578 1580 1577 1570 1565 1579 1586 1583 1581 1580 1577 1573 1568 1562 1556 1550 1544 1538 1530 1523 1516 1509 1502 1495 1489 1483 1478 1473 1468 1462 1455 1449 1443 1436 1430 1424 1420 1417 1416 1415 1414 1415 1416 1416 1418 1419 1421
1565 1569 1570 1579 1577 1577 1571 1581 1584 1582 1581 1579 1576 1572 1567 1561 1555 1549 1542 1535 1528 1521 1514 1508 1501 1494 1488 1482 1476 1470 1464 1458 1452 1446 1439 1432 1426 1420 1415 1412 1410 1409 1410 1410 1410 1411 1413 1414 1416
1566 1569 1577 1578 1579 1577 1571 1580 1587 1584 1582 1578 1575 1570 1565 1559 1553 1546 1539 1533 1526 1520 1513 1506 1500 1493 1487 1481 1475 1469 1463 1457 1450 1443 1437 1429 1422 1416 1411 1407 1405 1404 1405 1405 1406 1406 1408 1410 1412
1570 1573 1577 1582 1583 1587 1584 1589 1586 1586 1584 1580 1576 1570 1564 1558 1551 1544 1538 1531 1525 1518 1511 1504 1498 1492 1486 1480 1473 1467 1461 1455 1449 1442 1435 1427 1420 1413 1407 1403 1401 1400 1400 1400 1400 1402 1404 1407 1408
1571 1576 1581 1588 1588 1589 1593 1594 1587 1586 1584 1580 1575 1569 1563 1557 1551 1544 1537 1530 1523 1516 1510 1503 1497 1491 1485 1479 1473 1466 1460 1454 1448 1441 1434 1427 1419 1412 1406 1401 1398 1397 1396 1396 1396 1398 1399 1402 1404